sat.trackr.live / text

‹ back to catalog

STARLINK-36236

NORAD 67078 · 2025-298D

PAYLOAD ACTIVE UNKNOWN

§ Identity

Operator
Country
US
Launch date
2025-12-14
Launch site
AFWTR
Launch vehicle
Mass (kg)
RCS (m²)

Purposes: comms

External: N2YO · Heavens-Above · Gunter

§ Orbital elements

Epoch: 2026-05-25T03:01:27.803136Z

Period
96.11 min
Inclination
70.0013°
Eccentricity
0.0003914
Mean motion
14.98337214 rev/d
Perigee alt
569.3 km
Apogee alt
574.8 km
Semi-major
6,950.2 km
B*
2.6090e-4
RAAN
181.8592°
Arg perigee
267.6485°
Mean anomaly
92.4226°
Rev number
2,466

§ Raw data

STARLINK-362361 67078U 25298D   26145.12601624  .00003022  00000+0  26090-3 0  99902 67078  70.0013 181.8592 0003914 267.6485  92.4226 14.98337214 24665

JSON: /api/v1/satellites/67078 · /tle

For live sub-satellite position, see the globe view (requires WebGL).

§ Visibility from observer

Set your observer location to see the next 7 days of passes ≥ 10°. The values pass through the URL so the page stays shareable.

No JS? Fill the form by hand. The geolocation button needs JavaScript.